CZ-6A DEB, 54427

Orbit data source: Space-Track

CZ-6A DEB, 54427 is space debris in SSO originally from a launch on Fri, 11 Nov 2022 UTC launched from the Taiyaun Space Center, China (TSC). Debris objects in space refer to the collection of defunct objects orbiting the Earth. Examples of debris include non-operational satellites, rocket bodies, and fragments generated from explosions, collisions, or faulty payload assembly.

Loading next visibility...
Identifier
54427, 2022-151FB
Orbit
SSO
Country
Flag of CNCN / PRC
Related business
Manufacturer
SAST
Mission
Spacecraft
Bus & Motor
Unknown
Mass
Unknown
Launch date (UTC)
2022-11-11 (4 years ago)
Launch vehicle
Unknown
Launch site
Taiyaun Space Center, China (TSC)
Object type
Payload
Rocket body
Debris
Shape & HBR
Unknown shape, 0.2 m
Radar Cross Section
Medium (>0.1 m² and <1 m²)

Expand to show TLE details & history
Last TLE update: 9 hours ago

TLE from 9 hours ago
0 CZ-6A DEB
1 54427U 22151FB  26236.35734403  .00000752  00000-0  61862-3 0  9991
2 54427  99.0504 202.6508 0174774 336.2343  23.0812 13.85556953190745
Epoch: 2026-08-24T08:34Z
TLE epoch observation values (Epoch: 2026-08-24T08:34:34.524Z)
Latitude
-0.00006°
Longitude
101.36675°
Altitude
829.699 km
Speed
7.497 km/s
True Right ascension
13h 30m 36s
True Declination
0° 00' 00"
Sunlit
Object was in daylight at epoch
Visualization orbit readout
Latitude
Unknown
Longitude
Unknown
Altitude
Unknown
Speed
Unknown
Apparent Right ascension
Unknown
Apparent Declination
Unknown
Sunlit
N/A
Visualization observer readout
Local Sidereal Time
08:53:32
Azimuth
Unknown
Elevation
Unknown
Doppler factor
Unknown
Orbital elements
Apogee altitude
1,069.39 km
Perigee altitude
813.535 km
Semi-major axis
7,319.6 km
Eccentricity
0.01748
Inclination
99.0504°
RAAN
202.6508°
Arg. of periapsis
336.2343°
True anomaly
23.88242°
Mean anomaly
23.0812°
Eccentric anomaly
23.48018°
Mean motion
3.46587 °/min
Orbital period
103.87 mins
BSTAR
0.00061862
Loading maneuver chart data...
Computing Atmospheric mass density...

Documentation

Showing up to 5 results
|